06-01-2022, 00:00:00,    275,    0.0,   -1.8,   0.00,   0.00, 1016.2,   87.6, -999.0
06-01-2022, 00:00:09,    276,    0.0,   -1.8,   0.00,   0.00, 1016.2,   87.7, -999.0
06-01-2022, 00:00:20,    276,    0.0,   -1.8,   0.00,   0.00, 1016.2,   87.7, -999.0
06-01-2022, 00:00:30,    276,    0.0,   -1.8,   0.00,   0.00, 1016.2,   87.7, -999.0
06-01-2022, 00:00:39,    276,    0.0,   -1.8,   0.00,   0.00, 1016.2,   87.6, -999.0
06-01-2022, 00:00:49,    276,    0.0,   -1.8,   0.00,   0.00, 1016.2,   87.6, -999.0
06-01-2022, 00:01:00,    276,    0.0,   -1.8,   0.00,   0.00, 1016.2,   87.6, -999.0
06-01-2022, 00:01:09,    276,    0.0,   -1.8,   0.00,   0.00, 1016.2,   87.6, -999.0
06-01-2022, 00:01:19,    276,    0.0,   -1.8,   0.00,   0.00, 1016.2,   87.6, -999.0
06-01-2022, 00:01:29,    276,    0.0,   -1.8,   0.00,   0.00, 1016.2,   87.6, -999.0
06-01-2022, 00:01:39,    276,    0.0,   -1.8,   0.00,   0.00, 1016.2,   87.6, -999.0
06-01-2022, 00:01:49,    276,    0.0,   -1.8,   0.00,   0.00, 1016.2,   87.7, -999.0
06-01-2022, 00:01:59,    276,    0.0,   -1.8,   0.00,   0.00, 1016.2,   87.7, -999.0
06-01-2022, 00:02:09,    276,    0.0,   -1.8,   0.00,   0.00, 1016.2,   87.7, -999.0
06-01-2022, 00:02:19,    276,    0.0,   -1.7,   0.00,   0.00, 1016.2,   87.7, -999.0
06-01-2022, 00:02:29,    276,    0.0,   -1.8,   0.00,   0.00, 1016.2,   87.8, -999.0
06-01-2022, 00:02:39,    276,    0.0,   -1.8,   0.00,   0.00, 1016.2,   87.8, -999.0
06-01-2022, 00:02:49,    276,    0.0,   -1.8,   0.00,   0.00, 1016.2,   87.7, -999.0
06-01-2022, 00:02:59,    276,    0.0,   -1.8,   0.00,   0.00, 1016.2,   87.8, -999.0
06-01-2022, 00:03:09,    276,    0.0,   -1.8,   0.00,   0.00, 1016.2,   87.7, -999.0
06-01-2022, 00:03:18,    276,    0.0,   -1.8,   0.00,   0.00, 1016.2,   87.8, -999.0
06-01-2022, 00:03:29,    276,    0.0,   -1.8,   0.00,   0.00, 1016.2,   87.7, -999.0
06-01-2022, 00:03:39,    276,    0.0,   -1.8,   0.00,   0.00, 1016.2,   87.8, -999.0
06-01-2022, 00:03:48,    276,    0.0,   -1.8,   0.00,   0.00, 1016.2,   87.8, -999.0
06-01-2022, 00:03:58,    276,    0.0,   -1.8,   0.00,   0.00, 1016.2,   87.7, -999.0
06-01-2022, 00:04:08,    276,    0.0,   -1.8,   0.00,   0.00, 1016.2,   87.7, -999.0
06-01-2022, 00:04:18,    276,    0.0,   -1.8,   0.00,   0.00, 1016.2,   87.8, -999.0
06-01-2022, 00:04:28,    276,    0.0,   -1.8,   0.00,   0.00, 1016.2,   87.7, -999.0
06-01-2022, 00:04:38,    276,    0.0,   -1.8,   0.00,   0.00, 1016.2,   87.8, -999.0
06-01-2022, 00:04:48,    276,    0.0,   -1.8,   0.00,   0.00, 1016.2,   87.8, -999.0
06-01-2022, 00:04:58,    276,    0.0,   -1.9,   0.00,   0.00, 1016.2,   87.7, -999.0
06-01-2022, 00:05:08,    276,    0.0,   -1.8,   0.00,   0.00, 1016.2,   87.8, -999.0
06-01-2022, 00:05:18,    276,    0.0,   -1.8,   0.00,   0.00, 1016.2,   87.8, -999.0
06-01-2022, 00:05:28,    276,    0.0,   -1.8,   0.00,   0.00, 1016.2,   87.8, -999.0
06-01-2022, 00:05:38,    276,    0.0,   -1.8,   0.00,   0.00, 1016.2,   87.8, -999.0
06-01-2022, 00:05:48,    276,    0.0,   -1.9,   0.00,   0.00, 1016.1,   87.8, -999.0
06-01-2022, 00:05:58,    276,    0.0,   -1.8,   0.00,   0.00, 1016.1,   87.8, -999.0
06-01-2022, 00:06:08,    276,    0.0,   -1.8,   0.00,   0.00, 1016.1,   87.9, -999.0
06-01-2022, 00:06:18,    276,    0.0,   -1.8,   0.00,   0.00, 1016.1,   87.9, -999.0
06-01-2022, 00:06:27,    276,    0.0,   -1.8,   0.00,   0.00, 1016.1,   87.9, -999.0
06-01-2022, 00:06:38,    276,    0.0,   -1.8,   0.00,   0.00, 1016.1,   87.9, -999.0
06-01-2022, 00:06:47,    276,    0.0,   -1.8,   0.00,   0.00, 1016.1,   87.9, -999.0
06-01-2022, 00:06:57,    276,    0.0,   -1.8,   0.00,   0.00, 1016.1,   87.9, -999.0
06-01-2022, 00:07:08,    275,    0.0,   -1.8,   0.00,   0.00, 1016.1,   87.9, -999.0
06-01-2022, 00:07:17,    276,    0.0,   -1.8,   0.00,   0.00, 1016.1,   87.8, -999.0
06-01-2022, 00:07:27,    276,    0.0,   -1.8,   0.00,   0.00, 1016.1,   87.8, -999.0
06-01-2022, 00:07:37,    276,    0.0,   -1.9,   0.00,   0.00, 1016.1,   87.7, -999.0
06-01-2022, 00:07:47,    276,    0.0,   -1.8,   0.00,   0.00, 1016.1,   87.8, -999.0
06-01-2022, 00:07:57,    276,    0.0,   -1.8,   0.00,   0.00, 1016.1,   87.8, -999.0
06-01-2022, 00:08:07,    276,    0.0,   -2.0,   0.00,   0.00, 1016.1,   87.8, -999.0
06-01-2022, 00:08:17,    276,    0.0,   -1.9,   0.00,   0.00, 1016.1,   87.9, -999.0
06-01-2022, 00:08:27,    276,    0.0,   -1.8,   0.00,   0.00, 1016.1,   87.8, -999.0
06-01-2022, 00:08:37,    276,    0.0,   -1.8,   0.00,   0.00, 1016.1,   87.8, -999.0
06-01-2022, 00:08:47,    276,    0.0,   -1.8,   0.00,   0.00, 1016.1,   88.0, -999.0
06-01-2022, 00:08:57,    276,    0.0,   -1.8,   0.00,   0.00, 1016.1,   88.0, -999.0
06-01-2022, 00:09:07,    276,    0.0,   -1.8,   0.00,   0.00, 1016.1,   87.9, -999.0
06-01-2022, 00:09:17,    276,    0.0,   -1.8,   0.00,   0.00, 1016.1,   87.9, -999.0
06-01-2022, 00:09:26,    276,    0.0,   -1.8,   0.00,   0.00, 1016.1,   88.0, -999.0
06-01-2022, 00:09:37,    276,    0.0,   -1.9,   0.00,   0.00, 1016.1,   87.9, -999.0
06-01-2022, 00:09:47,    276,    0.0,   -1.9,   0.00,   0.00, 1016.1,   87.8, -999.0
06-01-2022, 00:09:56,    275,    0.0,   -1.9,   0.00,   0.00, 1016.1,   88.0, -999.0
06-01-2022, 00:10:06,    276,    0.0,   -1.8,   0.00,   0.00, 1016.1,   87.9, -999.0
06-01-2022, 00:10:17,    276,    0.0,   -1.8,   0.00,   0.00, 1016.1,   87.9, -999.0
06-01-2022, 00:10:26,    276,    0.0,   -1.9,   0.00,   0.00, 1016.1,   87.9, -999.0
06-01-2022, 00:10:36,    276,    0.0,   -1.8,   0.00,   0.00, 1016.1,   87.9, -999.0
06-01-2022, 00:10:47,    276,    0.0,   -1.8,   0.00,   0.00, 1016.1,   88.0, -999.0
06-01-2022, 00:10:56,    276,    0.0,   -1.8,   0.00,   0.00, 1016.1,   88.1, -999.0
06-01-2022, 00:11:06,    276,    0.0,   -1.8,   0.00,   0.00, 1016.1,   88.1, -999.0
06-01-2022, 00:11:16,    276,    0.0,   -1.9,   0.00,   0.00, 1016.1,   88.0, -999.0
06-01-2022, 00:11:26,    276,    0.0,   -1.9,   0.00,   0.00, 1016.1,   88.0, -999.0
06-01-2022, 00:11:36,    276,    0.0,   -1.9,   0.00,   0.00, 1016.1,   88.1, -999.0
06-01-2022, 00:11:46,    276,    0.0,   -1.9,   0.00,   0.00, 1016.1,   88.0, -999.0
06-01-2022, 00:11:56,    276,    0.0,   -1.9,   0.00,   0.00, 1016.1,   88.0, -999.0
06-01-2022, 00:12:06,    276,    0.0,   -1.9,   0.00,   0.00, 1016.1,   87.9, -999.0
06-01-2022, 00:12:16,    276,    0.0,   -1.9,   0.00,   0.00, 1016.1,   87.8, -999.0
06-01-2022, 00:12:26,    276,    0.0,   -2.0,   0.00,   0.00, 1016.1,   87.8, -999.0
06-01-2022, 00:12:35,    276,    0.0,   -1.9,   0.00,   0.00, 1016.1,   87.9, -999.0
06-01-2022, 00:12:46,    276,    0.0,   -1.9,   0.00,   0.00, 1016.1,   88.0, -999.0
06-01-2022, 00:12:56,    276,    0.0,   -1.9,   0.00,   0.00, 1016.1,   87.9, -999.0
06-01-2022, 00:13:05,    276,    0.0,   -2.0,   0.00,   0.00, 1016.1,   88.0, -999.0
06-01-2022, 00:13:16,    276,    0.0,   -2.0,   0.00,   0.00, 1016.1,   87.9, -999.0
06-01-2022, 00:13:26,    276,    0.0,   -2.0,   0.00,   0.00, 1016.1,   87.9, -999.0
06-01-2022, 00:13:35,    276,    0.0,   -1.9,   0.00,   0.00, 1016.1,   88.0, -999.0
06-01-2022, 00:13:45,    276,    0.0,   -1.9,   0.00,   0.00, 1016.1,   88.1, -999.0
06-01-2022, 00:13:55,    276,    0.0,   -1.9,   0.00,   0.00, 1016.1,   88.0, -999.0
06-01-2022, 00:14:05,    276,    0.0,   -1.9,   0.00,   0.00, 1016.1,   88.0, -999.0
06-01-2022, 00:14:15,    276,    0.0,   -1.9,   0.00,   0.00, 1016.1,   88.0, -999.0
06-01-2022, 00:14:25,    276,    0.0,   -1.9,   0.00,   0.00, 1016.1,   88.0, -999.0
06-01-2022, 00:14:35,    276,    0.0,   -2.0,   0.00,   0.00, 1016.1,   88.0, -999.0
06-01-2022, 00:14:45,    276,    0.0,   -2.0,   0.00,   0.00, 1016.1,   87.9, -999.0
06-01-2022, 00:14:55,    276,    0.0,   -1.9,   0.00,   0.00, 1016.1,   88.1, -999.0
06-01-2022, 00:15:05,    276,    0.0,   -1.9,   0.00,   0.00, 1016.1,   88.0, -999.0
06-01-2022, 00:15:15,    276,    0.0,   -2.0,   0.00,   0.00, 1016.1,   88.0, -999.0
06-01-2022, 00:15:25,    276,    0.0,   -1.9,   0.00,   0.00, 1016.1,   88.1, -999.0
06-01-2022, 00:15:35,    276,    0.0,   -2.0,   0.00,   0.00, 1016.1,   88.1, -999.0
06-01-2022, 00:15:45,    276,    0.0,   -1.9,   0.00,   0.00, 1016.1,   88.1, -999.0
06-01-2022, 00:15:55,    276,    0.0,   -1.9,   0.00,   0.00, 1016.1,   88.1, -999.0
06-01-2022, 00:16:05,    276,    0.0,   -1.9,   0.00,   0.00, 1016.1,   88.1, -999.0
06-01-2022, 00:16:14,    276,    0.0,   -2.0,   0.00,   0.00, 1016.1,   88.0, -999.0
06-01-2022, 00:16:25,    276,    0.0,   -2.0,   0.00,   0.00, 1016.1,   88.0, -999.0
06-01-2022, 00:16:35,    276,    0.0,   -2.1,   0.00,   0.00, 1016.1,   88.0, -999.0
06-01-2022, 00:16:44,    277,    0.0,   -2.0,   0.00,   0.00, 1016.1,   88.0, -999.0
06-01-2022, 00:16:54,    276,    0.0,   -2.1,   0.00,   0.00, 1016.1,   88.0, -999.0
06-01-2022, 00:17:04,    276,    0.0,   -2.0,   0.00,   0.00, 1016.1,   88.1, -999.0
06-01-2022, 00:17:14,    276,    0.0,   -2.0,   0.00,   0.00, 1016.1,   88.3, -999.0
06-01-2022, 00:17:24,    276,    0.0,   -2.0,   0.00,   0.00, 1016.1,   88.2, -999.0
06-01-2022, 00:17:34,    276,    0.0,   -2.0,   0.00,   0.00, 1016.1,   88.3, -999.0
06-01-2022, 00:17:44,    276,    0.0,   -2.0,   0.00,   0.00, 1016.1,   88.3, -999.0
06-01-2022, 00:17:54,    276,    0.0,   -2.0,   0.00,   0.00, 1016.1,   88.3, -999.0
06-01-2022, 00:18:04,    276,    0.0,   -1.9,   0.00,   0.00, 1016.1,   88.3, -999.0
06-01-2022, 00:18:14,    276,    0.0,   -1.8,   0.00,   0.00, 1016.2,   88.5, -999.0
06-01-2022, 00:18:24,    276,    0.0,   -1.9,   0.00,   0.00, 1016.1,   88.4, -999.0
06-01-2022, 00:18:34,    276,    0.0,   -1.9,   0.00,   0.00, 1016.2,   88.3, -999.0
06-01-2022, 00:18:44,    276,    0.0,   -1.8,   0.00,   0.00, 1016.1,   88.4, -999.0
06-01-2022, 00:18:54,    276,    0.0,   -1.8,   0.00,   0.00, 1016.2,   88.3, -999.0
06-01-2022, 00:19:04,    276,    0.0,   -1.8,   0.00,   0.00, 1016.2,   88.4, -999.0
06-01-2022, 00:19:14,    276,    0.0,   -1.9,   0.00,   0.00, 1016.2,   88.5, -999.0
06-01-2022, 00:19:23,    276,    0.0,   -1.9,   0.00,   0.00, 1016.2,   88.3, -999.0
06-01-2022, 00:19:34,    276,    0.0,   -1.9,   0.00,   0.00, 1016.2,   88.3, -999.0
06-01-2022, 00:19:43,    276,    0.0,   -1.9,   0.00,   0.00, 1016.1,   88.4, -999.0
06-01-2022, 00:19:53,    276,    0.0,   -2.0,   0.00,   0.00, 1016.1,   88.4, -999.0
06-01-2022, 00:20:03,    276,    0.0,   -1.9,   0.00,   0.00, 1016.1,   88.3, -999.0
06-01-2022, 00:20:13,    276,    0.0,   -1.9,   0.00,   0.00, 1016.1,   88.4, -999.0
06-01-2022, 00:20:23,    276,    0.0,   -1.9,   0.00,   0.00, 1016.1,   88.4, -999.0
06-01-2022, 00:20:33,    276,    0.0,   -2.0,   0.00,   0.00, 1016.1,   88.3, -999.0
06-01-2022, 00:20:43,    276,    0.0,   -2.0,   0.00,   0.00, 1016.1,   88.3, -999.0
06-01-2022, 00:20:53,    276,    0.0,   -1.9,   0.00,   0.00, 1016.1,   88.4, -999.0
06-01-2022, 00:21:03,    276,    0.0,   -2.0,   0.00,   0.00, 1016.1,   88.3, -999.0
06-01-2022, 00:21:13,    275,    0.0,   -1.9,   0.00,   0.00, 1016.1,   88.3, -999.0
06-01-2022, 00:21:23,    276,    0.0,   -2.0,   0.00,   0.00, 1016.1,   88.3, -999.0
06-01-2022, 00:21:33,    276,    0.0,   -2.0,   0.00,   0.00, 1016.1,   88.3, -999.0
06-01-2022, 00:21:43,    276,    0.0,   -2.1,   0.00,   0.00, 1016.1,   88.3, -999.0
06-01-2022, 00:21:53,    276,    0.0,   -2.0,   0.00,   0.00, 1016.1,   88.3, -999.0
06-01-2022, 00:22:03,    276,    0.0,   -2.0,   0.00,   0.00, 1016.2,   88.4, -999.0
06-01-2022, 00:22:13,    276,    0.0,   -1.9,   0.00,   0.00, 1016.1,   88.4, -999.0
06-01-2022, 00:22:22,    276,    0.0,   -2.0,   0.00,   0.00, 1016.1,   88.4, -999.0
06-01-2022, 00:22:33,    276,    0.0,   -2.1,   0.00,   0.00, 1016.2,   88.3, -999.0
06-01-2022, 00:22:43,    276,    0.0,   -2.0,   0.00,   0.00, 1016.1,   88.4, -999.0
06-01-2022, 00:22:52,    276,    0.0,   -2.1,   0.00,   0.00, 1016.1,   88.3, -999.0
06-01-2022, 00:23:02,    276,    0.0,   -2.0,   0.00,   0.00, 1016.1,   88.3, -999.0
06-01-2022, 00:23:13,    276,    0.0,   -2.1,   0.00,   0.00, 1016.1,   88.3, -999.0
06-01-2022, 00:23:22,    276,    0.0,   -2.1,   0.00,   0.00, 1016.1,   88.4, -999.0
06-01-2022, 00:23:32,    276,    0.0,   -2.0,   0.00,   0.00, 1016.1,   88.6, -999.0
06-01-2022, 00:23:42,    276,    0.0,   -2.0,   0.00,   0.00, 1016.1,   88.6, -999.0
06-01-2022, 00:23:52,    276,    0.0,   -2.1,   0.00,   0.00, 1016.1,   88.6, -999.0
06-01-2022, 00:24:02,    276,    0.0,   -1.9,   0.00,   0.00, 1016.1,   88.6, -999.0
06-01-2022, 00:24:12,    276,    0.0,   -2.0,   0.00,   0.00, 1016.1,   88.6, -999.0
06-01-2022, 00:24:22,    276,    0.0,   -2.0,   0.00,   0.00, 1016.1,   88.6, -999.0
06-01-2022, 00:24:32,    276,    0.0,   -2.0,   0.00,   0.00, 1016.1,   88.5, -999.0
06-01-2022, 00:24:42,    276,    0.0,   -2.0,   0.00,   0.00, 1016.1,   88.5, -999.0
06-01-2022, 00:24:52,    276,    0.0,   -2.0,   0.00,   0.00, 1016.1,   88.4, -999.0
06-01-2022, 00:25:02,    276,    0.0,   -2.0,   0.00,   0.00, 1016.1,   88.4, -999.0
06-01-2022, 00:25:12,    277,    0.0,   -2.0,   0.00,   0.00, 1016.1,   88.4, -999.0
06-01-2022, 00:25:22,    276,    0.0,   -1.9,   0.00,   0.00, 1016.1,   88.4, -999.0
06-01-2022, 00:25:31,    276,    0.0,   -2.0,   0.00,   0.00, 1016.1,   88.4, -999.0
06-01-2022, 00:25:42,    275,    0.0,   -2.1,   0.00,   0.00, 1016.2,   88.4, -999.0
06-01-2022, 00:25:52,    276,    0.0,   -2.0,   0.00,   0.00, 1016.2,   88.5, -999.0
06-01-2022, 00:26:01,    276,    0.0,   -2.0,   0.00,   0.00, 1016.2,   88.5, -999.0
06-01-2022, 00:26:11,    277,    0.0,   -2.0,   0.00,   0.00, 1016.2,   88.6, -999.0
06-01-2022, 00:26:22,    276,    0.0,   -2.0,   0.00,   0.00, 1016.2,   88.5, -999.0
06-01-2022, 00:26:31,    276,    0.0,   -2.0,   0.00,   0.00, 1016.2,   88.5, -999.0
06-01-2022, 00:26:41,    276,    0.0,   -2.0,   0.00,   0.00, 1016.2,   88.6, -999.0
06-01-2022, 00:26:51,    276,    0.0,   -1.9,   0.00,   0.00, 1016.2,   88.6, -999.0
06-01-2022, 00:27:01,    276,    0.0,   -2.0,   0.00,   0.00, 1016.2,   88.6, -999.0
06-01-2022, 00:27:11,    276,    0.0,   -2.0,   0.00,   0.00, 1016.2,   88.6, -999.0
06-01-2022, 00:27:21,    276,    0.0,   -2.0,   0.00,   0.00, 1016.2,   88.7, -999.0
06-01-2022, 00:27:31,    276,    0.0,   -2.0,   0.00,   0.00, 1016.2,   88.5, -999.0
06-01-2022, 00:27:41,    276,    0.0,   -2.0,   0.00,   0.00, 1016.2,   88.5, -999.0
06-01-2022, 00:27:51,    276,    0.0,   -2.0,   0.00,   0.00, 1016.2,   88.6, -999.0
06-01-2022, 00:28:01,    276,    0.0,   -2.0,   0.00,   0.00, 1016.2,   88.6, -999.0
06-01-2022, 00:28:11,    276,    0.0,   -2.0,   0.00,   0.00, 1016.2,   88.7, -999.0
06-01-2022, 00:28:21,    276,    0.0,   -2.1,   0.00,   0.00, 1016.2,   88.5, -999.0
06-01-2022, 00:28:31,    276,    0.0,   -2.1,   0.00,   0.00, 1016.2,   88.7, -999.0
06-01-2022, 00:28:40,    276,    0.0,   -2.1,   0.00,   0.00, 1016.2,   88.7, -999.0
06-01-2022, 00:28:51,    276,    0.0,   -2.0,   0.00,   0.00, 1016.2,   88.7, -999.0
06-01-2022, 00:29:01,    276,    0.0,   -2.1,   0.00,   0.00, 1016.2,   88.7, -999.0
06-01-2022, 00:29:10,    276,    0.0,   -2.1,   0.00,   0.00, 1016.2,   88.6, -999.0
06-01-2022, 00:29:20,    276,    0.0,   -2.0,   0.00,   0.00, 1016.2,   88.7, -999.0
06-01-2022, 00:29:31,    276,    0.0,   -2.1,   0.00,   0.00, 1016.2,   88.7, -999.0
06-01-2022, 00:29:40,    276,    0.0,   -2.0,   0.00,   0.00, 1016.2,   88.6, -999.0
06-01-2022, 00:29:50,    276,    0.0,   -2.0,   0.00,   0.00, 1016.2,   88.7, -999.0
06-01-2022, 00:30:00,    276,    0.0,   -2.0,   0.00,   0.00, 1016.2,   88.7, -999.0
06-01-2022, 00:30:10,    276,    0.0,   -2.0,   0.00,   0.00, 1016.2,   88.8, -999.0
06-01-2022, 00:30:20,    276,    0.0,   -2.1,   0.00,   0.00, 1016.2,   88.8, -999.0
06-01-2022, 00:30:30,    275,    0.0,   -2.0,   0.00,   0.00, 1016.2,   88.8, -999.0
06-01-2022, 00:30:40,    276,    0.0,   -2.0,   0.00,   0.00, 1016.2,   88.7, -999.0
06-01-2022, 00:30:50,    276,    0.0,   -2.0,   0.00,   0.00, 1016.2,   88.7, -999.0
06-01-2022, 00:31:00,    276,    0.0,   -2.0,   0.00,   0.00, 1016.2,   88.6, -999.0
06-01-2022, 00:31:10,    276,    0.0,   -2.1,   0.00,   0.00, 1016.2,   88.7, -999.0
06-01-2022, 00:31:22,    276,    0.0,   -2.1,   0.00,   0.00, 1016.1,   88.6, -999.0
06-01-2022, 00:31:30,    275,    0.0,   -2.1,   0.00,   0.00, 1016.1,   88.6, -999.0
06-01-2022, 00:31:40,    276,    0.0,   -2.0,   0.00,   0.00, 1016.2,   88.6, -999.0
06-01-2022, 00:31:50,    276,    0.0,   -2.0,   0.00,   0.00, 1016.1,   88.8, -999.0
06-01-2022, 00:32:00,    276,    0.0,   -2.0,   0.00,   0.00, 1016.1,   88.7, -999.0
06-01-2022, 00:32:10,    276,    0.0,   -2.0,   0.00,   0.00, 1016.1,   88.7, -999.0
06-01-2022, 00:32:19,    276,    0.0,   -2.0,   0.00,   0.00, 1016.1,   88.6, -999.0
06-01-2022, 00:32:30,    276,    0.0,   -2.1,   0.00,   0.00, 1016.2,   88.7, -999.0
06-01-2022, 00:32:39,    276,    0.0,   -2.0,   0.00,   0.00, 1016.2,   88.7, -999.0
06-01-2022, 00:32:49,    276,    0.0,   -2.0,   0.00,   0.00, 1016.2,   88.7, -999.0
06-01-2022, 00:32:59,    275,    0.0,   -2.0,   0.00,   0.00, 1016.2,   88.8, -999.0
06-01-2022, 00:33:09,    276,    0.0,   -2.1,   0.00,   0.00, 1016.2,   88.8, -999.0
06-01-2022, 00:33:19,    276,    0.0,   -2.1,   0.00,   0.00, 1016.2,   88.7, -999.0
06-01-2022, 00:33:29,    276,    0.0,   -2.1,   0.00,   0.00, 1016.2,   88.7, -999.0
06-01-2022, 00:33:39,    275,    0.0,   -2.0,   0.00,   0.00, 1016.2,   88.6, -999.0
06-01-2022, 00:33:49,    276,    0.0,   -2.1,   0.00,   0.00, 1016.2,   88.6, -999.0
06-01-2022, 00:33:59,    276,    0.0,   -2.1,   0.00,   0.00, 1016.2,   88.6, -999.0
06-01-2022, 00:34:09,    276,    0.0,   -2.1,   0.00,   0.00, 1016.2,   88.7, -999.0
06-01-2022, 00:34:19,    276,    0.0,   -2.2,   0.00,   0.00, 1016.2,   88.6, -999.0
06-01-2022, 00:34:29,    276,    0.0,   -2.1,   0.00,   0.00, 1016.2,   88.7, -999.0
06-01-2022, 00:34:39,    275,    0.0,   -2.1,   0.00,   0.00, 1016.2,   88.8, -999.0
06-01-2022, 00:34:49,    276,    0.0,   -2.1,   0.00,   0.00, 1016.2,   88.7, -999.0
06-01-2022, 00:34:59,    276,    0.0,   -2.2,   0.00,   0.00, 1016.2,   88.8, -999.0
06-01-2022, 00:35:09,    275,    0.0,   -2.1,   0.00,   0.00, 1016.2,   88.8, -999.0
06-01-2022, 00:35:18,    276,    0.0,   -2.1,   0.00,   0.00, 1016.3,   88.7, -999.0
06-01-2022, 00:35:28,    276,    0.0,   -2.1,   0.00,   0.00, 1016.2,   88.7, -999.0
06-01-2022, 00:35:39,    276,    0.0,   -2.1,   0.00,   0.00, 1016.3,   88.8, -999.0
06-01-2022, 00:35:48,    276,    0.0,   -2.1,   0.00,   0.00, 1016.2,   88.8, -999.0
06-01-2022, 00:35:58,    276,    0.0,   -2.1,   0.00,   0.00, 1016.2,   88.8, -999.0
06-01-2022, 00:36:08,    276,    0.0,   -2.1,   0.00,   0.00, 1016.2,   88.8, -999.0
06-01-2022, 00:36:20,    275,    0.0,   -2.2,   0.00,   0.00, 1016.2,   88.8, -999.0
06-01-2022, 00:36:28,    275,    0.0,   -2.1,   0.00,   0.00, 1016.3,   88.9, -999.0
06-01-2022, 00:36:38,    275,    0.0,   -2.1,   0.00,   0.00, 1016.3,   88.8, -999.0
06-01-2022, 00:36:48,    276,    0.0,   -2.1,   0.00,   0.00, 1016.2,   88.8, -999.0
06-01-2022, 00:36:58,    276,    0.0,   -2.1,   0.00,   0.00, 1016.2,   88.8, -999.0
06-01-2022, 00:37:08,    276,    0.0,   -2.1,   0.00,   0.00, 1016.3,   88.8, -999.0
06-01-2022, 00:37:18,    276,    0.0,   -2.1,   0.00,   0.00, 1016.2,   88.9, -999.0
06-01-2022, 00:37:28,    275,    0.0,   -2.1,   0.00,   0.00, 1016.3,   88.9, -999.0
06-01-2022, 00:37:38,    275,    0.0,   -2.1,   0.00,   0.00, 1016.3,   88.9, -999.0
06-01-2022, 00:37:48,    276,    0.0,   -2.0,   0.00,   0.00, 1016.3,   88.9, -999.0
06-01-2022, 00:37:58,    276,    0.0,   -2.1,   0.00,   0.00, 1016.3,   88.9, -999.0
06-01-2022, 00:38:08,    276,    0.0,   -2.1,   0.00,   0.00, 1016.3,   88.9, -999.0
06-01-2022, 00:38:18,    276,    0.0,   -2.1,   0.00,   0.00, 1016.2,   88.9, -999.0
06-01-2022, 00:38:27,    276,    0.0,   -2.1,   0.00,   0.00, 1016.2,   88.9, -999.0
06-01-2022, 00:38:38,    275,    0.0,   -2.2,   0.00,   0.00, 1016.3,   88.8, -999.0
06-01-2022, 00:38:48,    276,    0.0,   -2.1,   0.00,   0.00, 1016.2,   88.9, -999.0
06-01-2022, 00:38:57,    275,    0.1,   -2.1,   0.00,   0.00, 1016.3,   89.2, -999.0
06-01-2022, 00:39:07,    275,    0.0,   -2.1,   0.00,   0.00, 1016.3,   89.0, -999.0
06-01-2022, 00:39:18,    275,    0.0,   -2.1,   0.00,   0.00, 1016.3,   89.1, -999.0
06-01-2022, 00:39:27,    276,    0.3,   -2.1,   0.00,   0.00, 1016.4,   89.4, -999.0
06-01-2022, 00:39:37,    275,    0.1,   -2.0,   0.00,   0.00, 1016.3,   89.2, -999.0
06-01-2022, 00:39:47,    276,    0.0,   -2.1,   0.00,   0.00, 1016.3,   89.0, -999.0
06-01-2022, 00:39:57,    275,    0.0,   -2.2,   0.00,   0.00, 1016.3,   89.1, -999.0
06-01-2022, 00:40:07,    275,    0.0,   -2.1,   0.00,   0.00, 1016.2,   89.0, -999.0
06-01-2022, 00:40:17,    275,    0.0,   -2.1,   0.00,   0.00, 1016.3,   89.0, -999.0
06-01-2022, 00:40:27,    275,    0.0,   -2.1,   0.00,   0.00, 1016.2,   89.0, -999.0
06-01-2022, 00:40:37,    275,    0.0,   -2.1,   0.00,   0.00, 1016.3,   89.0, -999.0
06-01-2022, 00:40:47,    275,    0.0,   -2.2,   0.00,   0.00, 1016.3,   88.9, -999.0
06-01-2022, 00:40:57,    275,    0.0,   -2.1,   0.00,   0.00, 1016.3,   88.9, -999.0
06-01-2022, 00:41:07,    275,    0.0,   -2.1,   0.00,   0.00, 1016.2,   89.0, -999.0
06-01-2022, 00:41:17,    275,    0.0,   -2.1,   0.00,   0.00, 1016.3,   89.0, -999.0
06-01-2022, 00:41:27,    275,    0.0,   -2.1,   0.00,   0.00, 1016.3,   89.1, -999.0
06-01-2022, 00:41:36,    275,    0.0,   -2.2,   0.00,   0.00, 1016.2,   89.1, -999.0
06-01-2022, 00:41:47,    275,    0.0,   -2.2,   0.00,   0.00, 1016.3,   89.1, -999.0
06-01-2022, 00:41:57,    275,    0.0,   -2.2,   0.00,   0.00, 1016.3,   89.1, -999.0
06-01-2022, 00:42:06,    275,    0.0,   -2.1,   0.00,   0.00, 1016.3,   89.0, -999.0
06-01-2022, 00:42:16,    275,    0.0,   -2.1,   0.00,   0.00, 1016.3,   89.0, -999.0
06-01-2022, 00:42:26,    275,    0.0,   -2.1,   0.00,   0.00, 1016.4,   89.3, -999.0
06-01-2022, 00:42:36,    275,    0.0,   -2.0,   0.00,   0.00, 1016.3,   89.1, -999.0
06-01-2022, 00:42:46,    275,    0.0,   -2.1,   0.00,   0.00, 1016.4,   89.3, -999.0
06-01-2022, 00:42:56,    275,    0.6,   -1.9,   0.00,   0.00, 1016.4,   89.5, -999.0
06-01-2022, 00:43:06,    275,    0.0,   -2.1,   0.00,   0.00, 1016.3,   89.2, -999.0
06-01-2022, 00:43:16,    275,    0.0,   -2.1,   0.00,   0.00, 1016.3,   89.1, -999.0
06-01-2022, 00:43:26,    275,    0.0,   -2.1,   0.00,   0.00, 1016.3,   89.1, -999.0
06-01-2022, 00:43:36,    275,    0.0,   -2.0,   0.00,   0.00, 1016.3,   89.2, -999.0
06-01-2022, 00:43:46,    275,    0.0,   -2.1,   0.00,   0.00, 1016.3,   89.2, -999.0
06-01-2022, 00:43:56,    275,    0.0,   -2.0,   0.00,   0.00, 1016.3,   89.1, -999.0
06-01-2022, 00:44:06,    275,    0.0,   -2.0,   0.00,   0.00, 1016.4,   89.3, -999.0
06-01-2022, 00:44:16,    275,    0.0,   -2.1,   0.00,   0.00, 1016.4,   89.2, -999.0
06-01-2022, 00:44:26,    275,    0.0,   -2.1,   0.00,   0.00, 1016.3,   89.0, -999.0
06-01-2022, 00:44:36,    275,    0.0,   -2.1,   0.00,   0.00, 1016.3,   89.1, -999.0
06-01-2022, 00:44:46,    275,    0.0,   -2.3,   0.00,   0.00, 1016.3,   89.1, -999.0
06-01-2022, 00:44:56,    275,    0.0,   -2.3,   0.00,   0.00, 1016.3,   89.2, -999.0
06-01-2022, 00:45:05,    275,    0.1,   -2.1,   0.00,   0.00, 1016.4,   89.4, -999.0
06-01-2022, 00:45:15,    275,    0.1,   -2.1,   0.00,   0.00, 1016.4,   89.2, -999.0
06-01-2022, 00:45:26,    275,    0.2,   -2.0,   0.00,   0.00, 1016.4,   89.4, -999.0
06-01-2022, 00:45:35,    274,    0.0,   -2.1,   0.00,   0.00, 1016.3,   89.2, -999.0
06-01-2022, 00:45:45,    274,    0.0,   -2.1,   0.00,   0.00, 1016.3,   89.3, -999.0
06-01-2022, 00:45:55,    275,    0.0,   -2.2,   0.00,   0.00, 1016.3,   89.2, -999.0
06-01-2022, 00:46:05,    274,    0.0,   -2.2,   0.00,   0.00, 1016.3,   89.1, -999.0
06-01-2022, 00:46:15,    275,    0.0,   -2.2,   0.00,   0.00, 1016.3,   89.1, -999.0
06-01-2022, 00:46:25,    274,    0.0,   -2.2,   0.00,   0.00, 1016.3,   89.1, -999.0
06-01-2022, 00:46:35,    274,    0.0,   -2.1,   0.00,   0.00, 1016.3,   89.0, -999.0